Content
SEND FEEDBACK

Daily
Averages
Monthly
Summary
United States of America

PACIFIC GROVE, CALIFORNIA


Home > North America > United States > California
Elevation: 331 feet     Latitude: 36 36N     Longitude: 121 55W

WEATHER
 
SELECT A DAY
Number of Records: 192,084;   Date Range: 7/1/96 - 8/28/14
 
SHARE

PRINT THIS DATA

[ ← Previous Day ]
WEATHER ALMANAC - JANUARY 6, 2013
[ Next Day → ]
[ °C ]   °F
Weather ElementAverageHighLow
Temperature47.6 °F51.8 °F (2:13 pm)41 °F (9:54 pm)
Dewpoint42.7 °F45 °F (1:54 am)37.9 °F (9:54 pm)
Humidity83.5 %93 % (5:17 am)68 % (5:54 pm)
Barometer30.17 in30.24 in (9:54 pm)30.06 in (5:31 am)
Wind Speed5.8 mph12.7 mph (11:54 am)
Weather ElementAverage
Visibility9.3 mi
Wind DirectionS (176 °)

Weather ElementTotal
Precipitation0.47 in
Heating Degree Days18.6 (Base 65)
Averaged from 30 records on January 6, 2013
WEATHER CONDITIONS BREAKOUT
WIND DIRECTION BREAKOUT
WEATHER BY HOUR - JANUARY 6, 2013
[ °C ]   °F
Local TimeTemperatureDewpointHumidityBarometerVisibilityWind DirectionWind SpeedGust SpeedPrecipitationEventsConditions
1:54 AM48.0 °F45.0 °F89 %30.14 in10.0 miSSE (160°)6.9 mph0.02 inOvercast
2:54 AM48.0 °F45.0 °F89 %30.15 in8.0 miSSW (200°)4.6 mph0.10 inOvercast
3:06 AM48.2 °F44.6 °F87 %30.11 in8.0 miSouth (170°)3.5 mph0.01 inOvercast
3:54 AM48.0 °F45.0 °F89 %30.14 in4.0 miSSW (200°)6.9 mph0.11 inOvercast
4:21 AM48.2 °F44.6 °F87 %30.10 in8.0 miSSW (210°)5.8 mph0.01 inOvercast
4:54 AM46.9 °F44.1 °F90 %30.12 in10.0 miEast (100°)4.6 mph0.02 inOvercast
5:17 AM46.4 °F44.6 °F93 %30.07 in5.0 miESE (110°)5.8 mph0.04 inRainLight Rain
5:31 AM46.4 °F44.6 °F93 %30.06 in7.0 miEast (100°)8.1 mph0.07 inRainLight Rain
5:54 AM45.0 °F42.1 °F90 %30.09 in10.0 miEast (90°)11.5 mph0.09 inOvercast
6:54 AM44.1 °F42.1 °F93 %30.14 in10.0 miCalmMostly Cloudy
7:54 AM45.0 °F43.0 °F93 %30.18 in10.0 miCalmOvercast
8:54 AM46.9 °F44.1 °F90 %30.20 in10.0 miNorth (360°)3.5 mphOvercast
9:54 AM46.9 °F45.0 °F93 %30.23 in10.0 miWSW (250°)4.6 mphOvercast
10:17 AM48.2 °F44.6 °F87 %30.20 in10.0 miCalmOvercast
10:54 AM48.0 °F45.0 °F89 %30.23 in10.0 miSouth (190°)3.5 mphOvercast
11:54 AM51.1 °F44.1 °F77 %30.20 in10.0 miWest (270°)12.7 mphOvercast
12:54 PM51.1 °F44.1 °F77 %30.19 in10.0 miNorthOvercast
1:54 PM51.1 °F43.0 °F74 %30.18 in10.0 miWNW (290°)8.1 mphOvercast
2:13 PM51.8 °F42.8 °F71 %30.14 in10.0 miWest (270°)6.9 mphOvercast
2:54 PM51.1 °F43.0 °F74 %30.18 in10.0 miWest (280°)8.1 mphOvercast
3:46 PM51.8 °F42.8 °F71 %30.15 in10.0 miNNW (330°)6.9 mphOvercast
4:03 PM51.8 °F42.8 °F71 %30.15 in10.0 miNNW (330°)9.2 mphMostly Cloudy
4:54 PM50.0 °F41.0 °F71 %30.19 in10.0 miNW (320°)6.9 mphOvercast
5:54 PM50.0 °F39.9 °F68 %30.19 in10.0 miNW (310°)8.1 mphOvercast
6:54 PM50.0 °F39.9 °F68 %30.20 in10.0 miNW (320°)6.9 mphPartly Cloudy
7:54 PM45.0 °F39.9 °F82 %30.22 in10.0 miENE (60°)3.5 mphClear
8:54 PM43.0 °F39.0 °F86 %30.23 in10.0 miEast (100°)3.5 mphClear
9:54 PM41.0 °F37.9 °F89 %30.24 in10.0 miEast (80°)4.6 mphClear
10:54 PM42.1 °F39.0 °F89 %30.22 in10.0 miEast (90°)8.1 mphClear
11:54 PM42.1 °F37.9 °F85 %30.22 in10.0 miEast (90°)4.6 mphClear
Hourly data recorded from KMRY, located miles away from Pacific Grove, California







STORIES FROM OUR PARTNERS